User: anonymous   Login
Location: Northam
(31.6525°S, 116.6655°E)
Time: 21:23:52
(UTC+08:00)
Language:

AO-27 - Orbit

View from above orbital plane
View from above orbital plane
View from above satellite
View from above satellite

Ground track
Ground track

The orbit data is extracted from the following two-line orbital elements,

1 22825U 93061C   21211.89594253 -.00000011  00000-0  13786-4 0  9992
2 22825  98.9162 230.5746 0007337 268.2798  91.7542 14.30120384452190
Epoch (UTC): 30 July 2021 21:30:09
Eccentricity: 0.0007337
inclination: 98.9162°
perigee height: 786 km
apogee height: 796 km
right ascension of ascending node: 230.5746°
argument of perigee: 268.2798°
revolutions per day: 14.30120384
mean anomaly at epoch: 91.7542°
orbit number at epoch: 45219

The dashed part of the orbit path shows where the satellite is in the earth's shadow,  

DLR